Regional Weather Roundup
Issued by NWS

Home | Current Version | Previous Version | Text Only | Print | Product List | Glossary On
Versions: 1 2 3 4 5 6 7 8 9 10 11 12 13 14 15 16 17 18 19 20 21 22 23 24 25 26 27
000
ASUS46 KSEW 312310
RWRWA

WASHINGTON REGIONAL WEATHER ROUNDUP
NATIONAL WEATHER SERVICE SEATTLE WA
400 PM PDT WED AUG 31 2016

NOTE:"FAIR" INDICATES FEW OR NO CLOUDS BELOW 12,000 FEET WITH NO
SIGNIFICANT WEATHER AND/OR OBSTRUCTIONS TO VISIBILITY.

WAZ505-507>509-010000-
SEATTLE, TACOMA, EVERETT, AND VICINITY

CITY           SKY/WX    TMP DP  RH WIND       PRES   REMARKS
EVERETT        CLOUDY    64  57  78 SE16      29.98F
BOEING FIELD   PTSUNNY   70  61  73 SE10      29.97F
RENTON         PTSUNNY   68  60  75 S6        29.97F
SEATAC AIRPORT CLOUDY    67  57  70 S8        29.99S
JBLM-MCCHORD   CLOUDY    69  60  74 SE6       29.97F
PUYALLUP       PTSUNNY  N/A N/A N/A VRB5      29.99S
BREMERTON      MOSUNNY   66  61  82 S10       29.99F
JBLM-FT LEWIS  PTSUNNY   70  59  68 S6        29.97F
TACOMA NARROWS CLOUDY    65  58  78 SW6       29.98F
$$

WAZ001-503-506-510-514-515-010000-
NORTH INTERIOR

CITY           SKY/WX    TMP DP  RH WIND       PRES   REMARKS
BELLINGHAM     LGT RAIN  63  59  87 VRB6      29.95S
FRIDAY HARBOR  CLOUDY    62  55  77 E5        29.96F
EASTSOUND      CLOUDY    63  57  82 S13G18    29.92F
PORT ANGELES   CLOUDY    64  57  78 CALM      29.96S
EDIZ HOOK      MOCLDY    60  55  83 S7        29.95S
PORT TOWNSEND  CLOUDY    64  61  88 SE5       29.96S
NAS WHIDBEY    LGT RAIN  64  59  83 SE12      29.99F VSB 1
ARLINGTON      CLOUDY    64  54  68 SE14      29.98F
BURLINGTON     CLOUDY    64  59  82 S6        29.96S
$$

WAZ020-022-039-040-504-511-512-010000-
SOUTHWEST INTERIOR

CITY           SKY/WX    TMP DP  RH WIND       PRES   REMARKS
SHELTON        PTSUNNY   70  57  63 SW10      29.94F
OLYMPIA        CLOUDY    65  58  78 W6        29.98S
CHEHALIS       CLOUDY    70  61  73 S6        29.98F
KELSO          RAIN      63  61  93 CALM      30.00R FOG
VANCOUVER      CLOUDY    69  59  70 E5        29.99S
SCAPPOOSE, OR  CLOUDY    67  59  75 S5        29.98F
PORTLAND, OR   PTSUNNY   69  59  70 E7        29.99F
$$

WAZ021-516-517-010000-
WASHINGTON COAST

CITY           SKY/WX    TMP DP  RH WIND       PRES   REMARKS
FORKS          CLOUDY    64  57  78 S10G16    29.97S
HOQUIAM        CLOUDY    65  61  87 SW12      29.99S
ASTORIA, OR    PTSUNNY   66  59  78 SW14G20   30.00R
$$

WAZ019-023-024-040-518-519-010000-
CASCADE MOUNTAINS AND COLUMBIA GORGE

CITY           SKY/WX    TMP DP  RH WIND       PRES   REMARKS
STAMPEDE PASS  CLOUDY    52  50  93 VRB5      30.04R
TROUTDALE, OR  CLOUDY    70  60  70 CALM      29.99F
THE DALLES, OR SUNNY     80  53  39 NW22G36   29.88S
$$

WAZ026-027-041>044-520-521-010000-
EAST SLOPES

CITY           SKY/WX    TMP DP  RH WIND       PRES   REMARKS
OMAK           SUNNY     86  39  19 S10       29.79F
WENATCHEE      SUNNY     81  46  29 E7        29.81F
ELLENSBURG     MOSUNNY   78  52  40 NW28      29.86S
YAKIMA         MOSUNNY   85  42  22 VRB3      29.83F
$$

WAZ028-034-035-010000-
COLUMBIA BASIN

CITY           SKY/WX    TMP DP  RH WIND       PRES   REMARKS
EPHRATA        SUNNY     81  41  24 SW10      29.83F
MOSES LAKE     SUNNY     81  41  24 S9        29.84F
PASCO          SUNNY     86  41  20 VRB5      29.82F
HERMISTON, OR  SUNNY     86  47  25 W15       29.82F
$$

WAZ036>038-010000-
NORTHEAST WASHINGTON

CITY           SKY/WX    TMP DP  RH WIND       PRES   REMARKS
SPOKANE GEIGER MOSUNNY   80  38  22 SW8       29.88F
SPOKANE FELTS  SUNNY     83  41  22 W12       29.86F
FAIRCHILD AFB  SUNNY     79  39  23 SW10      29.88F
COEURDALENE,ID SUNNY     81  45  28 W7        29.84F
DEER PARK      SUNNY     82  37  20 S8        29.87F
$$

WAZ029>033-010000-
SOUTHEAST WASHINGTON

CITY           SKY/WX    TMP DP  RH WIND       PRES   REMARKS
PULLMAN        SUNNY     79  40  24 W9        29.92F
LEWISTON, ID   SUNNY     85  41  21 NW10      29.83F
WALLA WALLA    SUNNY     82  41  23 W10       29.86F
PENDLETON, OR  SUNNY     82  42  24 W8G17     29.87F
$$




USA.gov is the U.S. government's official web portal to all federal, state and local government web resources and services.